Powrót do katalogu

STARLINK-4196

AktywnyŁącznośćVLEO
NORAD 52859·PAYLOAD·🇺🇸 United States

Wystrzelony Jun 17, 2022 z Cape Canaveral Space Force Station

Loading…

Następne Przeloty (najbliższe 24 godziny)

TLE

ŚwieżeSource: CelesTrak SupGP

Epoka: Sep 14, 2026, 20:42 UTC

1 52859C 22062AF  26257.86298611  .00028555  00000+0  86654-3 0  2577
2 52859  53.1579 244.0539 0001239  87.2467 134.3925 15.33532422    15

Śledź STARLINK-4196 w czasie rzeczywistym z AllMySat

Download on the App Store